Location: Newark
(45.2500°N, 7.5833°E)
Time: 16:26:59
(UTC+00:00)

A-11 Canister half - Pass Details

Date: 31 January 2020
Orbit: 1525 x 1684 km, 47.3° (Epoch: 17 February)

Event Time Altitude Azimuth Distance (km) Brightness Sun altitude
Rises 18:12:18 0° 271° (W) 4,679 13.2 -17.3°
Reaches altitude 10° 18:15:19 10° 273° (W) 3,706 12.3 -17.8°
Maximum altitude 18:24:43 79° 1° (N) 1,588 9.0 -19.5°
Enters shadow 18:30:17 30° 84° (E) 2,561 9.5 -20.5°
